This is the latest recevied weather packets stored in our database for station/object K4KMJ. If no packets are shown the sender has not sent any weather packets the latest 10 day(s).
| Time | Temp. | Humidity | Pressure | Rain* | Wind** | Luminosity | Snow |
|---|---|---|---|---|---|---|---|
| 1788221120 | 26.67° C | 99% | 1018.4 hPa | 0 mm | - | 0 W/m² | - |
| 1788220816 | 26.67° C | 99% | 1018.2 hPa | 0 mm | - | 0 W/m² | - |
| 1788220510 | 26.67° C | 99% | 1018.1 hPa | 0 mm | - | 0 W/m² | - |
| 1788220205 | 26.67° C | 99% | 1018.3 hPa | 0 mm | - | 1 W/m² | - |
| 1788219899 | 26.67° C | 99% | 1018.5 hPa | 0 mm | - | 2 W/m² | - |
| 1788219595 | 26.67° C | 99% | 1018.3 hPa | 0 mm | - | 3 W/m² | - |
| 1788219290 | 27.22° C | 99% | 1018.2 hPa | 0 mm | - | 4 W/m² | - |
| 1788218986 | 27.22° C | 99% | 1018.2 hPa | 0 mm | - | 6 W/m² | - |
| 1788218681 | 27.22° C | 98% | 1018.3 hPa | 0 mm | - | 8 W/m² | - |
| 1788218377 | 27.22° C | 98% | 1018.4 hPa | 0 mm | - | 10 W/m² | - |
| 1788218073 | 27.22° C | 98% | 1018.4 hPa | 0 mm | - | 13 W/m² | - |
| 1788217769 | 27.22° C | 98% | 1018.3 hPa | 0 mm | - | 16 W/m² | - |
| 1788217469 | 27.22° C | 98% | 1018.5 hPa | 0 mm | - | 18 W/m² | - |
| 1788217163 | 27.22° C | 98% | 1018.4 hPa | 0 mm | - | 21 W/m² | - |
| 1788216860 | 27.22° C | 98% | 1018.2 hPa | 0 mm | - | 24 W/m² | - |
| 1788216554 | 27.22° C | 98% | 1018.1 hPa | 0 mm | - | 28 W/m² | - |
| 1788216254 | 27.22° C | 98% | 1018.3 hPa | 0 mm | - | 33 W/m² | - |
| 1788215949 | 27.22° C | 98% | 1018.3 hPa | 0 mm | - | 37 W/m² | - |
| 1788215644 | 27.78° C | 98% | 1018.3 hPa | 0 mm | - | 41 W/m² | - |
| 1788215341 | 27.22° C | 98% | 1018.3 hPa | 0 mm | - | 43 W/m² | - |
| 1788215036 | 27.78° C | 98% | 1018.5 hPa | 0 mm | - | 46 W/m² | - |
| 1788214731 | 27.22° C | 98% | 1018.6 hPa | 0 mm | - | 51 W/m² | - |
| 1788214427 | 27.22° C | 97% | 1018.6 hPa | 0 mm | - | 55 W/m² | - |
| 1788214122 | 27.22° C | 97% | 1018.7 hPa | 0 mm | - | 58 W/m² | - |
| 1788213817 | 27.22° C | 97% | 1018.8 hPa | 0 mm | - | 59 W/m² | - |
* Rain latest hour (hover to see other rain measurements)
** Current wind speed in m/s (hover to see current wind gust speed)